Regional Weather Roundup
Issued by NWS

Home | Current Version | Previous Version | Graphics & Text | Print | Product List | Glossary On
Versions: 1 2 3 4 5 6 7 8 9 10 11 12 13 14 15 16 17 18 19 20 21 22 23 24 25 26 27
000
ASUS45 KSLC 260510
RWRUT

UTAH REGIONAL WEATHER ROUNDUP
NATIONAL WEATHER SERVICE SALT LAKE CITY UT
1100 PM MDT WED APR 25 2018

UTZ001>011-023>025-260600-

NORTHERN UTAH

CITY           SKY/WX    TMP DP  RH WIND       PRES   REMARKS
BRIGHAM CITY   CLEAR     55  33  43 NW8       30.13R
HILL AFB       CLEAR     56  23  27 E8        30.13R
LOGAN          PTCLDY    49  36  61 CALM      30.13R
OGDEN          CLEAR     49  29  46 S5        30.11S
SALT LAKE CITY PTCLDY    57  36  45 CALM      30.10R
TOOELE VALLEY  CLEAR     45  34  65 S7        30.11S
WENDOVER       NOT AVBL
HEBER CITY       N/A     46  23  39 E6        30.15R
WEST JORDAN    CLEAR     53  34  49 NW5       30.12S

$$

UTZ011>015-024>027-260600-

CENTRAL/NORTHEAST UTAH

CITY           SKY/WX    TMP DP  RH WIND       PRES   REMARKS
PROVO AIRPORT  MOCLDY    59  40  49 CALM      30.11S
MOAB/CANYONLAN MOCLDY    57   8  14 W3        30.05F
DELTA          PTCLDY    54  36  50 CALM      30.11F
PRICE          CLOUDY    58  14  17 SE5       30.13S
RICHFIELD      CLEAR     50  23  34 CALM      30.14S
ROOSEVELT      MOCLDY    55  19  24 E5        30.10R
VERNAL         MOCLDY    52  23  32 N6        30.09S

$$

UTZ013>016-019>022-027-260600-

SOUTHERN UTAH

CITY           SKY/WX    TMP DP  RH WIND       PRES   REMARKS
BRYCE CANYON   CLEAR     41  19  41 W7        30.26S
CEDAR CITY     PTCLDY    58  27  30 SE6       30.13R
MILFORD        CLEAR     52  34  50 NE8       30.10R
ST GEORGE      PTCLDY    73  23  15 S6        29.98R
HANKSVILLE     CLEAR     55   9  15 CALM      30.09S
KANAB          CLEAR     57  30  35 CALM      30.14R
BLANDING         N/A     47  11  23 NW10      30.21F

$$

REGIONAL REPORTS     COLORADO/ARIZONA

CITY           SKY/WX    TMP DP  RH WIND       PRES   REMARKS
CRAIG, CO      MOCLDY    41  29  62 SE6       30.12R
GRAND JUNCTION MOCLDY    50  11  20 E3        30.07F
RIFLE, CO      PTCLDY    49  16  26 CALM      30.10S
MONTROSE, CO   MOCLDY    49  15  25 SE13      30.15F
CORTEZ, CO     CLEAR     42   4  20 NE9       30.15F
COLORADO CITY    N/A     54  25  32 CALM      30.13S
PAGE, AZ       MOCLDY    67  23  19 CALM      30.06R
GRAND CANYON   PTCLDY    45  14  28 E3        30.22R HAZE
KINGMAN, AZ    CLEAR     69  19  15 SE3       30.02S
FLAGSTAFF, AZ  CLEAR     44  17  33 CALM      30.24S

$$

REGIONAL REPORTS    NEVADA/IDAHO/WYOMING

CITY           SKY/WX    TMP DP  RH WIND       PRES   REMARKS
LAS VEGAS, NV  MOCLDY    85  24  11 W3        29.92R
ELY, NY        CLEAR     52  16  24 NW8       30.20R
ELKO, NV       CLEAR     51  30  44 CALM      30.16R
POCATELLO, ID  CLEAR     53  29  39 S10       30.13R
BURLEY, ID     CLEAR     46  29  51 SW10      30.12R
FORT BRIDGER,    N/A     47  20  34 W8        30.24S
EVANSTON, WY   CLEAR     46  20  35 SW5       30.22R
ROCK SPRINGS,  PTCLDY    50  20  30 W13       30.17R
KEMMERER, WY   PTCLDY    43  25  49 N7        30.23R

$$




USA.gov is the U.S. government's official web portal to all federal, state and local government web resources and services.